FloripaSat 1
1 44885U 19093G   25199.80778191  .00004271  00000-0  35865-3 0  9992
2 44885  97.8184 287.4972 0012540  75.8329 284.4286 14.98815037302626
RS-44
1 44909U 19096E   25199.72249942  .00000023  00000-0  47588-4 0  9997
2 44909  82.5197 201.2716 0216931 203.7775 155.3187 12.79742078259746
UPMSat 2
1 46276U 20061E   25199.47254410  .00069181  00000-0  48938-3 0  9997
2 46276  97.2406 275.3001 0001910 145.2407 214.8983 15.73794951271575
SALSAT
1 46495U 20068K   25199.51224364  .00005802  00000-0  24829-3 0  9990
2 46495  97.8625 179.3555 0012123  35.6079 324.5963 15.23175683264455
CubeSX-Sirius-HSE
1 47951U 21022V   25157.62701764  .07883385  25648-5  89537-3 0  9993
2 47951  97.4004  72.1904 0010275 223.9924 136.0557 16.36879307233400
CubeSX-HSE
1 47952U 21022W   25157.69972699  .06655353  25454-5  93288-3 0  9992
2 47952  97.3980  72.5414 0010307 219.3637 140.6911 16.34906352233436
GRBAlpha
1 47959U 21022AD  25160.45426279  .07940347  25506-5  90589-3 0  9995
2 47959  97.3899  75.6235 0011032 227.2558 132.7812 16.36806138232695
TUBIN
1 48900U 21059X   25199.80142744  .00046071  00000-0  49763-3 0  9994
2 48900  97.6768  12.3103 0003851  97.4703 262.6992 15.63500175226169
LEDSAT
1 49069U 21073D   25199.80380575  .00074227  00000-0  73193-3 0  9991
2 49069  97.3863 283.1203 0007482 278.3655  81.6756 15.65677030217566
CUTE
1 49263U 21088D   25199.79938309  .00035946  00000-0  67375-3 0  9995
2 49263  97.4494 277.2267 0008889 100.6003 259.6249 15.48538243210495
TeikyoSat 4
1 49396U 21102B   25199.50894995  .00001794  00000-0  12109-3 0  9999
2 49396  97.4083 236.5303 0012535   8.0000 352.1426 15.07773492202417
Z-Sat
1 49399U 21102E   25199.86321868  .00003713  00000-0  20352-3 0  9997
2 49399  97.3780 240.2133 0016963 332.7067  27.3272 15.14675217202925
KOSEN 1
1 49402U 21102H   25199.89319475  .00005192  00000-0  23866-3 0  9992
2 49402  97.3685 243.9582 0014078 304.6245  55.3662 15.20709366203265
HO-113
1 50466U 21131B   25199.85807630  .00000435  00000-0  14962-3 0  9999
2 50466  98.5106 289.0198 0004605  34.5734 325.5753 14.40850584187106
Foresail-1
1 52766U 22057AL  25176.64799660  .13857605  27391-5  25307-3 0  9992
2 52766  97.5832 331.2310 0012137 233.7199 258.4922 16.46795272172486
SNUGLITE 2
1 52899U 22065F   25199.39930227  .00000792  00000-0  16281-3 0  9998
2 52899  98.1735 341.0058 0007431   2.0026 358.1205 14.63283238162164
UmKA 1 (RS40S)
1 57172U 23091G   25199.89189277  .00004677  00000-0  24863-3 0  9994
2 57172  97.5558 255.0728 0014091 192.1035 167.9861 15.15695014113435
CubeBel-2 (EU11S)
1 57175U 23091K   25199.88179572  .00007354  00000-0  34512-3 0  9990
2 57175  97.5557 256.4544 0011717 197.4710 162.6123 15.19891313113525
VERONIKA
1 58261U 23174F   25199.81332997  .00279157  00000-0  12192-2 0  9995
2 58261  97.4069 288.7035 0007453 236.7955 123.2601 15.83956525 94869
ENSO
1 58470U 23185J   25199.88617467  .00056501  00000-0  70538-3 0  9999
2 58470  97.3709 276.3715 0004942 283.0134  77.0570 15.59679129 91158
EIRSAT-1
1 58472U 23185L   25199.86649156  .00156335  00000-0  97858-3 0  9999
2 58472  97.3636 279.0649 0004827 255.9828 104.0901 15.76355309 91334
SONATE-2
1 59112U 24043Q   25199.64011669  .00013581  00000-0  37928-3 0  9990
2 59112  97.5172 331.6411 0010058 340.8830  19.2035 15.36789765 76336
MO-122
1 60209U 24125G   25199.51460206  .00014312  00000-0  39230-3 0  9992
2 60209  97.2764  50.7199 0017959   3.3917 356.7446 15.37236656 57932
GRBBeta
1 60237U 24128C   25199.46158076  .00002761  00000-0  21399-3 0  9991
2 60237  61.9921 303.9608 0054574  65.9082 294.7705 15.02903505 56041
Curium One
1 60242U 24128H   25199.56433765  .00005283  00000-0  36749-3 0  9996
2 60242  61.9819 301.3044 0054507  62.1627 298.4974 15.05575199 56102
ROBUSTA-3A
1 60243U 24128J   25199.57924622  .00005124  00000-0  36187-3 0  9995
2 60243  61.9890 302.2122 0053549  59.8627 300.7756 15.05099727 56098
CatSat
1 60246U 24125J   25199.52247258  .00009492  00000-0  31143-3 0  9992
2 60246  97.2569  49.4899 0040498 317.0536  42.7545 15.31007866 55948
HYPERVIEW-1G (RS66S)
1 61772U 24199AP  25199.89047793  .00018862  00000-0  52434-3 0  9997
2 61772  97.3488  68.6920 0014636  57.8271 302.4390 15.36795920 82991
AO-123
1 61781U 24199AY  25199.85757747  .00005889  00000-0  21229-3 0  9993
2 61781  97.3505  67.1061 0017255  62.2064 298.0923 15.28781222 82882
ZIMSAT 2
1 61783U 24199BA  25199.86213242  .00036912  00000-0  83224-3 0  9997
2 61783  97.3460  69.6028 0013963  55.4572 304.7991 15.43055497 86209
HADES-R (SO-124)
1 62690U 25009CK  25199.45155078  .00027620  00000-0  91212-3 0  9995
2 62690  97.4076 280.1646 0001160 308.6812  51.4325 15.31362502 28098
HYDRA-T
1 62692U 25009CM  25199.16852617  .00029596  00000-0  96799-3 0  9997
2 62692  97.4076 279.9324 0000963 297.3017  62.8126 15.31659672 28058
JINJUSat 1B
1 63210U 25052A   25199.21344573  .00008184  00000-0  36860-3 0  9998
2 63210  97.4369  92.8563 0004523 160.9332 199.2074 15.21311756 19120
NUSHSAT 1
1 63211U 25052B   25199.46470791  .00009572  00000-0  42671-3 0  9997
2 63211  97.4359  93.1159 0004368 164.8017 195.3350 15.21617098 19161
TEVEL2-4
1 63213U 25052D   25199.22316038  .00008858  00000-0  39902-3 0  9995
2 63213  97.4275  92.6937 0003007 174.2959 185.8311 15.21287302 19125
TEVEL2-5
1 63214U 25052E   25199.42162061  .00008620  00000-0  38861-3 0  9993
2 63214  97.4276  92.8873 0003018 173.2863 186.8414 15.21266139 19156
TEVEL2-6
1 63215U 25052F   25199.22745369  .00008908  00000-0  40200-3 0  9999
2 63215  97.4277  92.6902 0002999 175.3456 184.7808 15.21222307 19127
TEVEL2-1
1 63217U 25052H   25199.50730220  .00009343  00000-0  42422-3 0  9994
2 63217  97.4252  92.8873 0002677 191.6644 168.4530 15.21000603 19162
TEVEL2-2
1 63218U 25052J   25199.44177961  .00009178  00000-0  41675-3 0  9990
2 63218  97.4253  92.8234 0002700 193.0186 167.0981 15.21001542 19156
TEVEL2-3
1 63219U 25052K   25199.63942208  .00009378  00000-0  42579-3 0  9992
2 63219  97.4254  93.0172 0002689 191.8371 168.2802 15.20999106 19189
TEVEL2-8
1 63237U 25052AD  25199.20932457  .00008091  00000-0  38118-3 0  9995
2 63237  97.4315  92.4742 0006411 230.6394 129.4273 15.19758659 19104
TEVEL2-9
1 63238U 25052AE  25199.21328469  .00007923  00000-0  37406-3 0  9991
2 63238  97.4320  92.4721 0006504 230.9382 129.1275 15.19690398 19105
TEVEL2-7
1 63239U 25052AF  25199.21608919  .00007848  00000-0  37091-3 0  9999
2 63239  97.4317  92.4667 0006502 231.3831 128.6822 15.19658065 19100
HYDRA-W
1 63490U 25052BL  25198.49544898  .00021919  00000-0  88344-3 0  9994
2 63490  97.4263  92.2743 0009651 229.8983 130.1410 15.24808764 19032
HADES-ICM (SO-125)
1 63492U 25052BN  25199.17863080  .00020161  00000-0  82500-3 0  9995
2 63492  97.4269  92.8983 0009944 232.5837 127.4496 15.24312869 19136
